Regional Weather Roundup
Issued by NWS

Home | Current Version | Previous Version | Text Only | Print | Product List | Glossary Off
Versions: 1 2 3 4 5 6 7 8 9 10 11 12 13 14 15 16 17 18 19 20 21 22 23 24 25 26 27 28 29 30 31 32 33 34 35 36 37 38 39 40 41 42 43 44 45 46 47 48 49 50

000
ASUS45 KTFX 012019
RWRMT
MONTANA HOURLY WEATHER ROUNDUP
NATIONAL WEATHER SERVICE GREAT FALLS MT
219 PM MDT WED OCT 1 2014

NOTE: "FAIR" INDICATES FEW OR NO CLOUDS BELOW 12000 FEET WITH NO
SIGNIFICANT WEATHER AND/OR OBSTRUCTIONS TO VISIBILITY.

* THESE STATIONS ARE NOT UNDER NWS QUALITY CONTROL. THEY DO NOT
   REPORT WEATHER SUCH AS PRECIPITATION OR FOG.

MTZ001>007-043-012100-
WEST OF THE DIVIDE
CITY           SKY/WX    TMP DP  RH WIND       PRES   REMARKS
KALISPELL      PTCLDY    54  39  57 SW6       30.01F
MISSOULA       PTSUNNY   55  34  45 NW14      30.08F
BUTTE          PTCLDY    48  25  41 NW13G21   30.05F
MULLAN PASS    CLOUDY    36  34  92 VRB3      30.11R
* ESSEX        N/A       48  40  74 NE4        N/A
* LINCOLN      N/A       51  31  46 SW7G15     N/A
* LOOKOUT PASS N/A       44  36  74 SE4G10     N/A
* POLSON       N/A       58  35  42 S4G10      N/A
* RONAN APT    SUNNY     57  34  42 S8         N/A
* SEELEY LAKE  N/A       50  33  52 W8G17      N/A
* THOMP F APT  SUNNY     48  29  48 N4G18      N/A
* YAAK HILL    N/A       62  35  37 S3         N/A
$$

MTZ008-052>055-012100-
SOUTHWEST MONTANA
CITY           SKY/WX    TMP DP  RH WIND       PRES   REMARKS
BOZEMAN        CLOUDY    48  36  63 VRB7      30.04F
DILLON         PTCLDY    52  25  35 CALM      30.04F
W YELLOWSTONE  CLOUDY    41  28  60 W3        30.05F
* THREE FORKS  PTCLDY    55  52  90 N/A        N/A
* BOULDER HILL N/A       48  22  36 NW2G8      N/A
* MONIDA PASS  N/A       43  24  47 NW14G22    N/A
* RAYNOLDS PAS N/A       42  40  93 NW9G17     N/A
* WHITEHALL    N/A       54  28  37 W9G19      N/A
* WISE RIVER   N/A       47  25  42 W13G21     N/A
$$

MTZ009>010-012-014-046-048-049-054-012100-
EAST SLOPES AND CENTRAL MONTANA
CITY           SKY/WX    TMP DP  RH WIND       PRES   REMARKS
CUT BANK       PTCLDY    57  34  42 W24G31    29.88F
GREAT FALLS    PTSUNNY   57  34  42 SW18G26   29.92F
HELENA         PTCLDY    57  28  33 W15G24    29.99F
MALMSTROM AFB  PTSUNNY   59  36  42 SW17G25   29.93F
* CONRAD       SUNNY     61  36  39 SW9        N/A
* DEARBORN     N/A       56  31  39 S15G22     N/A
* EAST GLACIER N/A       48  29  48 NW17G34    N/A
* MONARCH      N/A       47  27  46 SW14       N/A
* PENDROY      N/A       57  26  30 W17G26     N/A
* ROGERS PASS  N/A       45  30  56 E14G28     N/A
* SAINT MARY   N/A       49  33  54 SW11G26    N/A
* SWEET GRASS  N/A       56  28  34 W10        N/A
$$

MTZ011-013-016-021-035-040-045-047-050-051-012100-
NORTH CENTRAL MONTANA
CITY           SKY/WX    TMP DP  RH WIND       PRES   REMARKS
HAVRE          PTCLDY    63  36  37 W13       29.87F
LEWISTOWN      PTSUNNY   55  36  49 W15       29.94F
* CHINOOK      SUNNY     61  34  36 W12G18    29.86F
* FORT BENTON  PTCLDY    61  34  36 SW9G17    29.90F
* CHESTER      N/A       57  34  42 W11G19     N/A
* DENTON       N/A       54  30  40 NW7G12     N/A
* JUDITH GAP   N/A       53  29  40 NW10G17    N/A
* LOMA         N/A       59  35  41 SW12G19    N/A
$$

MTZ017>020-022>027-061-062-012100-
NORTHEAST MONTANA
CITY           SKY/WX    TMP DP  RH WIND       PRES   REMARKS
GLASGOW        CLOUDY    57  43  60 NW17      29.82S
GLENDIVE       CLOUDY    54  45  72 NW18G25   29.83S
JORDAN         PTCLDY    59  37  44 NW22G31   29.86S
SIDNEY         PTSUNNY   57  45  64 W20G25    29.79S
WOLF POINT     CLOUDY    57  45  64 NW18      29.81R
* BEAVER HILL  N/A       55  45  69 W23G29     N/A
* CIRCLE       N/A       54  47  77 W12        N/A
* LINDSAY DVD  N/A       51  45  80 W20G27     N/A
* NAVAJO       N/A       52  44  74 NW20G26    N/A
$$

MTZ028>042-056>058-012100-
SOUTHCENTRAL AND SOUTHEAST MONTANA
CITY           SKY/WX    TMP DP  RH WIND       PRES   REMARKS
BAKER          CLOUDY    50  43  77 W17G26    29.86R
BILLINGS       PTCLDY    57  27  32 NW21      29.93F
LIVINGSTON     CLOUDY    55  36  49 SW21      29.99F
MILES CITY     PTCLDY    61  37  41 NW16      29.86F
* LAUREL APT   PTCLDY    59  30  33 W14        N/A
* ROUNDUP APT  PTCLDY    57  30  36 NW8        N/A
* ALZADA       N/A       52  39  61 NW12       N/A
* HYSHAM       N/A       57  29  34 W9G17      N/A
* LAME DEER    N/A       52  38  59 NW8G19     N/A
* REED POINT   N/A       56  34  44 W14G20     N/A
* ROSCOE HILL  N/A       52  20  28 NW9G19     N/A
$$

REGIONAL REPORTS...DAKOTAS
CITY           SKY/WX    TMP DP  RH WIND       PRES   REMARKS
WILLISTON      CLOUDY    57  48  72 NW22G30   29.74S
DICKINSON      CLOUDY    54  46  74 W13       29.76S
BEACH          N/A       54  48  80 W21G26    29.82S
CROSBY         PTSUNNY   54  50  86 NW18G26   29.71R
TIOGA          CLOUDY    52  52 100 W23G31    29.74R
WATFORD CITY   PTSUNNY   57  46  67 W16G22    29.73R
BISMARCK       PTSUNNY   63  50  63 W17       29.72F
GRAND FORKS    PTSUNNY   66  52  61 SW16G24   29.59R
FARGO          PTSUNNY   72  52  49 SW22      29.63S
BUFFALO SD     CLOUDY    52  43  72 NW24      29.80F
RAPID CITY     RAIN      52  46  80 N16       29.87S
$$

REGIONAL REPORTS...WYOMING/IDAHO/WASHINGTON
CITY           SKY/WX    TMP DP  RH WIND       PRES   REMARKS
GILLETTE       CLOUDY    50  37  61 NW15      29.93F
SHERIDAN       CLOUDY    54  37  53 NW12G20   29.95F
CODY           PTSUNNY   48  36  63 SW5       29.99F
YELLOWSTONE LA PTCLDY    39  28  65 W6        30.06F WCI  35
SALMON         CLOUDY    54  34  47 N5        30.10S
MULLAN PASS    CLOUDY    36  34  92 VRB3      30.11S
SAND POINT     CLOUDY    57  41  55 SW7       30.07F
SPOKANE        PTSUNNY   57  37  47 SW14G23   30.10F
$$

REGIONAL REPORTS...ALBERTA
CITY           SKY/WX    TMP DP  RH WIND       PRES   REMARKS
CALGARY        SUNNY     59  23  25 VRB7      29.78F
LETHBRIDGE     PTCLDY    59  32  36 W21G28    29.83F
MEDICINE HAT   PTSUNNY   59  36  42 S5        29.82F
EDMONTON       LGT RAIN  50  32  50 N18G25    29.76R
WATERTON GATE  N/A       54  28  37 SW23G35    N/A
CARDSTON       N/A       55  34  45 W15G25     N/A
MILK RIVER     N/A       63  32  31 W12G18     N/A
$$

REGIONAL REPORTS...SASKATCHEWAN
CITY           SKY/WX    TMP DP  RH WIND       PRES   REMARKS
SWIFT CURRENT  PTCLDY    57  36  46 NW21G33   29.76F
MOOSE JAW      PTSUNNY   57  46  67 NW21G30   29.71S
REGINA         CLOUDY    54  45  72 NW24G31   29.67R
VAL MARIE      N/A       59  39  48 NW17G25    N/A
ASSINIBOIA     N/A       55  43  64 NW18G25    N/A
CORONACH       N/A       52  45  77 W18G25     N/A

$$



USA.gov is the U.S. government's official web portal to all federal, state and local government web resources and services.